This is the latest recevied weather packets stored in our database for station/object KB4RFE. If no packets are shown the sender has not sent any weather packets the latest 10 day(s).
| Time | Temp. | Humidity | Pressure | Rain* | Wind** | Luminosity | Snow |
|---|---|---|---|---|---|---|---|
| 1777768125 | 13.33° C | 97% | 1015 hPa | 0 mm | - | 0 W/m² | - |
| 1777767822 | 13.33° C | 97% | 1014.8 hPa | 0 mm | - | 0 W/m² | - |
| 1777767518 | 13.33° C | 97% | 1014.8 hPa | 0 mm | - | 0 W/m² | - |
| 1777767215 | 13.33° C | 97% | 1014.8 hPa | 0 mm | - | 0 W/m² | - |
| 1777766912 | 13.33° C | 97% | 1014.9 hPa | 0 mm | - | 0 W/m² | - |
| 1777766610 | 13.33° C | 97% | 1014.9 hPa | 0 mm | - | 1 W/m² | - |
| 1777766307 | 13.33° C | 97% | 1014.6 hPa | 0.51 mm | - | 2 W/m² | - |
| 1777766004 | 13.33° C | 97% | 1014.6 hPa | 0.51 mm | - | 3 W/m² | - |
| 1777765700 | 13.33° C | 97% | 1014.6 hPa | 0.51 mm | - | 5 W/m² | - |
| 1777765397 | 13.89° C | 97% | 1014.5 hPa | 1.27 mm | - | 4 W/m² | - |
| 1777765094 | 13.89° C | 97% | 1014.5 hPa | 0.51 mm | - | 5 W/m² | - |
| 1777764790 | 13.89° C | 97% | 1014.4 hPa | 0.51 mm | - | 8 W/m² | - |
| 1777764487 | 13.89° C | 97% | 1014.1 hPa | 0.51 mm | - | 11 W/m² | - |
| 1777764183 | 13.89° C | 97% | 1014.2 hPa | 0 mm | - | 13 W/m² | - |
| 1777763880 | 13.89° C | 97% | 1013.9 hPa | 0 mm | - | 12 W/m² | - |
| 1777763578 | 13.89° C | 97% | 1013.7 hPa | 0 mm | - | 17 W/m² | - |
| 1777763276 | 13.89° C | 97% | 1014 hPa | 0 mm | - | 24 W/m² | - |
| 1777762974 | 13.89° C | 97% | 1013.8 hPa | 0 mm | - | 31 W/m² | - |
| 1777762670 | 13.89° C | 97% | 1013.9 hPa | 0 mm | - | 35 W/m² | - |
| 1777762367 | 13.89° C | 97% | 1013.8 hPa | 0 mm | - | 32 W/m² | - |
| 1777762063 | 13.89° C | 97% | 1013.9 hPa | 0.51 mm | - | 56 W/m² | - |
| 1777761760 | 13.89° C | 97% | 1014 hPa | 0.51 mm | - | 49 W/m² | - |
| 1777761458 | 13.89° C | 97% | 1014 hPa | 0 mm | - | 51 W/m² | - |
| 1777761156 | 13.89° C | 97% | 1014.2 hPa | 0 mm | - | 55 W/m² | - |
| 1777760853 | 13.89° C | 96% | 1014.1 hPa | 0 mm | - | 47 W/m² | - |
* Rain latest hour (hover to see other rain measurements)
** Current wind speed in m/s (hover to see current wind gust speed)